Weather Roundup
Issued by NWS Springfield, MO

Home | Current Version | Previous Version | Text Only | Print | Product List | Glossary On
Versions: 1 2 3 4 5 6 7 8 9 10 11 12 13 14 15 16 17 18 19 20 21 22 23 24 25 26 27 28 29 30 31 32 33 34 35 36 37 38 39 40 41 42 43 44 45 46 47 48 49 50
170
NZUS99 KSGF 100057
HRRSGF

HOURLY WEATHER
NATIONAL WEATHER SERVICE SPRINGFIELD MO
700 PM CST TUE FEB 09 2016

......SGF CWA......

CITY           SKY/WX    TMP DP  RH WIND       PRES   REMARKS
SPRINGFIELD    CLEAR     27   4  37 NW13      30.17R WCI  16
JOPLIN         CLEAR     29   7  39 NW16      30.25R WCI  17
WEST PLAINS    CLEAR     28   6  39 NW14G24   30.12R WCI  17
ROLLA          PTCLDY    22   9  57 NW14G26   30.11R WCI   9
BRANSON        CLEAR     30   3  31 NW14      30.17R WCI  20

......SURROUNDING SGF CWA......

CITY           SKY/WX    TMP DP  RH WIND       PRES   REMARKS
CHANUTE        CLEAR     28   8  43 N10       30.30R WCI  19
PARSONS        CLEAR     30   9  41 N13       30.30R WCI  20
COFFEYVILLE    CLEAR     30   9  41 N8        30.30R WCI  22
EMPORIA        CLEAR     24   7  48 NW7       30.30R WCI  16
HARRISON AR    CLEAR     30   6  36 NW10      30.16R WCI  21

......KANSAS AND MISSOURI......

CITY           SKY/WX    TMP DP  RH WIND       PRES   REMARKS
KANSAS CTY INT CLEAR     23   7  50 NW10      30.25R WCI  12
SEDALIA        CLEAR     23   7  50 NW12      30.20S WCI  12
ST JOSEPH      CLEAR     23   7  50 NW13      30.28R WCI  11
ST LOUIS       MOCLDY    26  10  50 NW16      30.10R WCI  14
WICHITA        PTCLDY    34  14  43 N13       30.32R WCI  25
TOPEKA         PTCLDY    26   7  44 NW8       30.30R WCI  18
OLATHE         CLEAR     23   4  44 NW10      30.25R WCI  12

......TENNESSEE......

CITY           SKY/WX    TMP DP  RH WIND       PRES   REMARKS
MEMPHIS        NOT AVBL
NASHVILLE      LGT SNOW  23  16  74 NW12      30.08R WCI  12

......ARKANSAS.......

CITY           SKY/WX    TMP DP  RH WIND       PRES   REMARKS
FAYETTEVILLE   CLEAR     31  10  41 NW9       30.21R WCI  23
FT SMITH       CLEAR     41   9  26 NW12      30.24R
LITTLE ROCK    CLEAR     42   8  24 NW16      30.18R

......OKLAHOMA.......

CITY           SKY/WX    TMP DP  RH WIND       PRES   REMARKS
TULSA          MOCLDY    38  16  40 N10       30.28R WCI  31
PONCA CITY     PTCLDY    37  18  46 N13       30.32R WCI  29
MCALESTER      PTCLDY    43  17  35 N6        30.27R
OKLAHOMA CITY  MOCLDY    42  20  41 N8        30.29S

......IOWA............

CITY           SKY/WX    TMP DP  RH WIND       PRES   REMARKS
DES MOINES     NOT AVBL
QUAD CITIES    CLEAR     14   3  61 NW10      30.07R WCI   1

......ILLINOIS........

CITY           SKY/WX    TMP DP  RH WIND       PRES   REMARKS
QUINCY         CLEAR     16   4  59 NW13      30.10R WCI   2
CHICAGO        LGT SNOW  15   8  73 NW14      29.93R WCI   0




USA.gov is the U.S. government's official web portal to all federal, state and local government web resources and services.